CAPE
2301 2470 2365 2232 1995 1901 2042 1803 1795 1960 2292 1769 2200 2266 1720 1864 1958 1505 907 882 978 993 999 812 1273 889 1269 1114 1310 1376 1583 1685 1752 1912 2104 2264 2353 2427 2300 2268 2247 2182 2146 2169 2215 2246 2260 2222 2132 1900 1963 2079 1896 1912 1868 1834 1787 1850 1823 1764 1707 1596 1499 1362 1376 1452 1402 1362 1403 1380 1338 1368 1358 1479 1550 1538 1546 1554 1562 1817 1676 1728 1746 1641 1586
2372 2302 2055 2138 2139 2092 1913 1610 1681 1906 2076 1736 2490 2716 2511 2215 2071 1232 1461 991 640 628 1005 887 929 1142 744 1343 1346 1436 1534 1612 1712 1770 1978 2185 2295 2720 2481 2281 2258 2203 2156 2141 2144 2188 2202 2215 2147 1982 1974 1976 1929 2012 1849 1913 1908 1896 1776 1760 1465 1245 1411 1408 1315 1343 1258 1433 1294 1443 1510 1412 1459 1522 1590 1611 1580 1585 1612 1668 1564 1612 1587 1449 837
1832 1995 2028 1795 1777 1776 1816 1811 2171 2125 2498 2182 2753 2993 2662 2401 2086 2100 1448 1031 1133 762 926 955 770 659 1131 1280 1320 1441 1472 1504 1559 1665 1783 1946 2189 2420 2640 2562 2370 2273 2212 2100 1969 2008 2075 2135 1970 2011 1973 1962 1987 2007 2043 1956 1864 1810 1800 1537 1399 1490 1575 1448 1394 1427 1417 1395 1507 1510 1566 1507 1475 1578 1585 1694 1596 1565 1587 1577 1540 1354 1250 838 526
1637 1914 1262 1259 1634 2166 2276 2327 2637 2527 2310 2335 2070 2276 2792 2562 2457 2368 1892 1188 1444 1308 1409 730 621 627 796 1037 1259 1376 1437 1505 1535 1605 1735 1869 2091 2263 2369 2605 2605 2448 2330 2255 2063 1986 2024 2030 1954 1882 1901 1943 1912 1884 1811 1848 1831 1692 1715 1576 1538 1482 1443 1580 1420 1591 1481 1532 1595 1489 1574 1538 1458 1489 1477 1662 1568 1570 1505 1465 1244 905 949 466 388
2088 2508 3051 2198 2378 2495 2645 2614 2562 2712 2784 2540 2494 2595 2565 3126 2418 2811 2136 2515 2194 1263 1764 742 552 647 604 690 1202 1323 1398 1534 1606 1662 1693 1803 1957 2117 2249 2348 2510 2673 2644 2434 2376 2186 2099 2006 1918 1860 1858 1773 1696 1825 1836 1852 1702 1658 1632 1632 1599 1412 1676 1651 1519 1502 1574 1398 1493 1487 1626 1630 1564 1466 1470 1584 1427 1450 1407 1409 704 785 572 390 420
2723 2485 2131 2249 2554 2623 2612 2572 2710 2713 2929 2829 2788 2616 2688 3268 2958 2808 3037 2972 2575 1808 1863 714 566 633 745 765 697 1260 1404 1483 1625 1705 1675 1711 1826 2023 2200 2252 2331 2414 2561 2504 2504 2430 2272 2080 2043 1965 1848 1848 1695 1654 1608 1599 1512 1495 1629 1587 1558 1579 1614 1570 1451 1609 1550 1524 1636 1672 1631 1477 1464 1492 1490 1566 1397 1405 1392 1004 626 622 456 426 356
2803 2228 2236 2272 2329 2346 2341 2369 2560 2771 2651 2736 2513 2318 2456 2651 2588 2449 3025 2504 2156 2349 2400 1131 560 637 728 651 781 863 1345 1513 1575 1669 1714 1717 1783 1860 1953 2130 2197 2318 2425 2490 2439 2676 2532 2341 2127 2040 1921 1880 1752 1676 1643 1585 1571 1632 1736 1647 1633 1788 1826 1762 1756 1620 1619 1691 1746 1694 1551 1534 1409 1494 1498 1492 1464 1323 1296 620 385 673 317 315 401
2362 2332 2226 2199 2189 2173 2473 2581 2798 2824 2992 2493 2673 2268 2320 2177 2532 2250 2657 2615 2358 1956 1948 84 346 622 806 693 642 1023 984 1296 1524 1756 1816 1855 1810 1799 1899 1993 2072 2201 2663 2294 2323 2430 2456 2462 2423 2353 2093 1954 1865 1789 1784 1696 1708 1802 1883 1924 1914 1934 1894 1791 1761 1783 1803 1723 1665 1515 1438 1503 1387 1492 1479 1380 1408 1285 1035 356 475 210 298 401 376
2215 2680 2656 2256 2110 2348 2468 2728 3021 2846 2616 2359 2216 2418 2368 2518 2515 2952 2253 2177 1729 1554 1314 761 702 360 444 507 892 1117 794 938 1515 1712 1825 2005 1985 1926 1843 1881 2100 2530 2382 2178 2236 2319 2602 2542 2573 2558 2308 2149 2136 1968 2004 1848 2014 1994 1965 1968 2048 1982 1835 1866 1843 1812 1852 1751 1667 1713 1564 1435 1412 1378 1326 1155 1286 1275 848 298 8 293 576 644 350
2000 2280 2114 1930 2216 2066 1766 1798 2447 2542 2426 2171 2382 2226 2090 1593 2150 2580 2671 2638 2426 2080 1113 475 526 368 304 607 805 1298 1194 1299 1253 1819 1856 2040 2124 2023 1982 2046 2195 2293 2282 2015 2055 2188 2376 2612 2702 2521 2573 2417 2344 2221 2120 2189 2276 2287 2197 2115 2007 2030 1842 1796 1874 1822 1877 1853 1801 1745 1662 1616 1488 1346 1315 1287 1276 1113 484 82 243 374 358 158 221
2255 3021 2682 2287 1974 1986 1740 1988 2388 2320 2214 2576 2154 2434 2462 1688 1933 2184 3013 2972 2638 2621 1235 770 835 277 466 849 1182 869 747 884 1875 1274 1529 1790 2055 2272 2118 2182 2287 2483 2345 2130 2062 2134 2157 2244 2499 2436 2495 2709 2576 2509 2307 2235 2284 2356 2272 2250 2065 2071 1888 1922 1919 1833 1868 1895 1808 1615 1557 1445 1348 1319 1298 1150 1110 1014 525 430 356 300 44 158 213
2966 2586 2153 1679 1519 1845 2284 2203 2305 2342 2359 2099 2164 2122 2556 2360 2129 2865 2508 3119 3966 2800 793 571 258 475 774 596 843 571 583 1565 1258 1186 1141 1415 1757 2141 2020 2119 2337 2512 2404 2310 2246 2195 2026 1926 2493 2347 2350 2539 2662 2648 2533 2420 2422 2402 2308 2104 1941 1871 1722 1744 1784 1761 1703 1717 1806 1786 1653 1483 1387 1352 1150 1058 1058 1066 700 88 50 260 206 241 542
2840 2076 2016 2206 1307 1586 1940 2004 2199 2062 1936 2262 2549 2318 2326 2615 3002 3616 2934 2405 1779 1783 749 524 205 485 714 703 674 926 1255 1817 638 699 528 671 1287 1616 1672 2008 2180 2437 2247 2235 2367 2332 2220 1947 2061 2148 2225 2162 2356 2658 2699 2540 2442 2484 2350 2226 2081 1861 1662 1707 1706 1737 1776 1828 1689 1595 1598 1585 1533 1391 1170 1033 1084 1068 890 187 306 516 473 393 537
2870 2182 2551 2084 1630 1374 1623 2132 2121 2258 2032 2515 1760 2576 2940 2802 2800 2209 2696 2278 1586 795 346 137 227 176 384 333 487 565 747 916 931 515 572 608 621 986 1380 1766 1990 2103 2119 2154 2242 2318 2152 1991 1958 2002 1990 2030 1974 2095 2459 2542 2506 2631 2533 2358 2274 2123 1817 1751 1709 1663 1628 1650 1687 1638 1560 1526 1330 1307 1083 1082 990 1013 1118 479 93 210 342 447 486
3053 2903 2395 1957 1811 1477 1320 1806 2116 2419 2718 2133 2420 2557 2379 2534 2608 2696 2196 2346 2065 1072 170 549 667 307 768 500 444 386 670 572 924 590 555 401 319 362 998 1337 1380 1646 1760 2089 2142 2384 2371 2192 2075 2058 2050 2161 2108 1826 1826 2404 2380 2604 2633 2509 2414 2321 1943 1846 1719 1551 1619 1712 1700 1666 1583 1483 1301 1119 1106 1147 1176 953 1070 851 218 261 319 464 726
3374 3261 2551 1955 1852 1934 1533 1774 2151 2376 2406 2534 2664 2384 2292 2621 2509 3201 2361 2784 1162 335 557 659 289 410 446 495 349 287 131 325 425 450 427 451 372 363 606 762 969 1295 1450 1510 1583 1860 2151 2221 2189 2121 2133 2319 2240 1955 1824 1904 2456 2922 2889 2697 2475 2403 2301 2075 2032 1948 1745 1544 1427 1446 1518 1553 1390 1395 1370 1368 1341 1142 1071 991 296 169 242 404 518
3337 3132 2778 2261 2142 2319 2193 2630 2855 2448 2875 2834 2725 2554 2836 2420 2424 2321 2238 1057 1056 189 538 588 560 949 1672 873 588 420 450 265 444 166 796 104 140 3 659 590 736 910 968 829 793 904 1456 1824 1937 1982 1996 2378 2322 2101 2090 2177 2394 3033 2984 3120 2764 2330 2263 2242 2137 2070 1943 1756 1680 1556 1717 1560 1452 1468 1538 1398 1123 1100 1112 1128 545 232 240 280 423
3168 2939 2701 2505 2356 2795 3060 3351 3243 3221 2709 2597 3212 3053 2960 2666 2717 2545 2298 1942 2294 178 134 2337 641 1741 748 670 1338 533 698 291 249 106 269 359 106 0 493 422 568 779 867 848 807 800 850 1027 1061 1785 1837 2109 2086 2224 2192 2252 2424 2410 2879 2895 3092 2657 2373 2247 2099 2123 2027 1946 1837 1751 1657 1572 1570 1555 1648 1552 1408 1060 1031 1245 952 308 223 330 488
2746 2640 2802 2694 2576 2901 2970 3025 3406 3220 3273 3397 2861 2336 2398 2565 2846 2787 2484 2960 2396 2561 514 445 183 393 831 719 1278 1077 688 919 493 1256 188 271 287 4 45 99 136 372 746 804 812 671 858 1052 1135 1015 989 1353 1208 982 1277 1986 2641 2569 3200 2963 2883 2762 2473 2098 1965 2028 2122 1989 1836 1808 1806 1654 1827 1748 1827 1754 1701 1469 1040 1129 935 433 334 341 474
2547 2702 2879 2961 2992 2957 2564 2989 3336 3115 3863 3048 2003 2123 3057 2691 2898 2329 2790 2650 2633 2782 2412 585 12 234 1149 578 768 1062 522 177 1130 339 302 433 130 448 28 94 188 340 632 696 725 593 703 1066 1130 1176 1163 1204 1259 1164 1188 1896 2398 2669 2976 2982 2750 2746 2508 2040 2028 2182 2189 1876 1730 1814 1882 1904 1870 1898 1947 1949 1854 1789 1277 1012 1056 726 419 420 587
2488 2817 2989 2756 3351 2845 3148 3148 3028 2963 3838 2823 2438 2500 2140 2584 3104 2620 2912 2854 3166 3415 1220 2436 1186 410 2204 122 495 862 691 149 104 830 316 443 785 348 111 66 193 254 489 602 521 536 749 1007 932 1209 1216 1229 1353 1312 1176 1251 1758 2147 2445 2907 2925 2929 2666 2088 1946 2320 2340 2057 1765 1678 1897 2042 2026 2071 2114 2069 1973 1872 1546 1068 965 898 642 579 548
2758 2665 3032 2870 3119 2968 3113 3020 3083 2981 3370 3156 2591 1912 2086 3184 2970 3086 3553 3241 2868 3157 1755 2259 1379 1932 440 440 704 788 658 878 283 296 384 758 308 325 420 71 143 68 236 150 233 479 661 971 1073 1507 1176 1151 1250 1329 1118 1053 1260 1582 1996 2991 3182 3064 2905 2398 2064 2375 2350 2166 2018 1676 1705 2079 2236 2290 2319 2234 2135 1987 1529 953 812 822 909 949 878
2771 2716 2848 3170 3028 3033 3169 2866 2932 3093 2996 2746 2482 1700 2197 3215 3272 3363 3402 3173 3191 2830 2730 1637 1849 868 1406 1777 888 856 371 411 164 317 486 614 560 405 449 274 2 0 298 81 255 452 580 666 816 1465 1215 1103 1017 1142 1226 1250 1765 1363 1258 2242 2515 2749 2678 2523 2165 2278 2281 1894 1984 1890 1805 1642 2095 2351 2405 2387 2375 2284 2114 1387 820 773 871 957 889
1987 2851 2764 3066 3053 2923 2924 2868 2896 2687 2592 2645 2275 1716 2282 3040 3150 3241 3147 3209 2984 3203 2374 1819 1391 1001 984 821 650 715 1338 327 318 662 647 145 117 166 310 1096 388 450 546 804 782 521 543 494 500 887 1129 1118 1097 1073 1095 1155 1752 2073 1738 1731 1786 2018 2235 2305 2195 1947 1724 1594 1392 1639 1800 1848 1727 2022 2387 2419 2401 2453 2483 2274 1572 1132 1042 1004 834
1586 2496 2708 2766 2886 2807 2672 2718 2635 2789 2680 2085 2527 1971 2291 2796 2922 3060 3118 3208 2992 3165 2704 2618 2145 1310 821 617 467 342 386 60 278 733 1234 574 116 91 231 719 863 658 970 358 425 447 453 251 304 76 848 1063 1242 1272 1248 1189 1094 1985 2418 1951 1813 1573 1716 1864 1830 1582 1340 1071 1009 1129 1161 1396 1607 1706 1754 1958 2174 2367 2497 2514 2424 1926 1304 1024 974
1752 1898 2514 2547 2820 2780 2638 2778 2546 2560 2823 1800 2118 2938 3515 2468 2810 2720 3081 2905 2974 3107 2805 2860 2319 2196 959 842 600 93 191 104 100 329 554 602 666 564 495 1466 1039 946 1428 965 513 522 248 362 188 30 731 952 1228 1322 1382 1294 1146 1500 2400 1715 1789 1618 1450 1409 1506 1307 1020 856 716 711 864 1135 1390 1441 1395 1460 1722 2080 2181 2220 2268 2231 2223 2071 1708
1815 1911 1937 2268 2692 2727 2597 2722 3242 2442 3214 2523 2595 2806 2585 3056 2761 2568 2836 3007 2944 3025 3074 2862 2726 2169 1984 1691 1476 1534 1304 1329 53 23 111 454 321 1453 1567 765 686 690 1302 2024 1644 816 688 662 644 621 649 815 1194 1289 1468 1446 1346 1494 2290 2167 1381 1410 1241 1169 1234 1160 874 695 634 619 659 766 875 973 991 1244 1224 1678 1813 1846 1994 2134 2140 2064 1924
1861 1860 1860 1896 2458 2594 2679 2574 3035 2870 2987 2834 2919 2810 2706 2350 2760 3320 2840 2960 2726 3202 2853 2724 2703 2283 2024 1794 1752 1902 1655 1858 2108 1701 1141 816 1195 1453 829 719 157 22 1342 1274 1567 1572 1603 1250 641 636 606 676 1202 1484 1310 1472 1375 1304 2517 1992 1521 1378 1295 1135 1060 1000 856 634 495 511 554 627 671 710 862 1106 1240 1454 1404 1258 1278 1417 1602 1707 1616
1634 1772 1933 1799 2125 2367 2528 2505 2717 3227 2779 3053 2962 2917 2832 2806 2507 2914 2323 2628 2434 2756 2846 2879 2877 2619 2280 2200 2292 2008 1768 2609 2279 1810 1769 2086 1734 1294 1055 711 699 513 1095 928 1448 1669 1541 1374 993 1115 641 1125 581 1357 1519 1211 1054 1089 1712 2004 1556 1326 1362 1335 1149 984 851 656 702 773 800 768 824 909 938 916 931 1261 1318 1029 671 674 877 960 1070
1078 1644 1628 2147 1884 2940 2390 2408 2671 2965 2994 2961 3016 3053 2891 2847 2879 2860 2768 2490 2851 2691 2802 2540 2619 2462 2613 2061 1856 2212 2352 2180 1852 2010 3149 1632 1557 1415 1612 2180 1221 989 779 913 1093 1447 1138 1066 1543 1250 2190 1789 1960 1058 1005 985 1018 1122 1603 1902 1679 1404 1160 1218 1331 1163 1158 1292 1458 1569 1658 1690 1618 1465 1378 1359 1436 1526 1567 1546 1476 1424 1332 1236 1114
1235 1126 1458 2095 1886 2575 2359 2377 2586 2886 2968 3003 2973 3075 3121 2755 3014 2832 2915 2831 3006 3039 2747 2696 2723 2942 2785 2534 2202 1962 2005 1912 1780 1722 3322 1858 1591 1631 1370 1602 1082 1029 1108 1168 820 1118 2171 2008 1919 1724 2080 2116 1882 1834 1762 1434 1470 1475 1405 1350 1460 1362 1292 1334 1393 1519 1690 1828 1938 2108 2249 2267 2132 2121 2100 2088 2143 2250 2202 2085 1930 1803 1724 1670 1610
1468 1050 1326 1549 1986 2280 2300 2365 2526 2807 2871 2952 3066 2962 3106 2812 2791 3106 2852 2923 2848 3012 3138 2695 2566 2447 2519 2802 3160 2875 2440 2541 2394 2537 3466 2933 2140 2154 2385 2672 1985 1625 1554 1408 1232 1093 1388 1984 2151 2169 2258 2360 2288 2227 2038 1761 1617 1691 1536 1552 1627 1658 1676 1880 1974 2056 2120 2235 2355 2579 2704 2658 2530 2476 2442 2427 2523 2524 2465 2389 2297 2185 2109 2055 2004
1574 1224 1272 1288 1906 1971 2217 2362 2532 2679 2756 2901 3036 2978 2978 2879 2756 2908 2761 2880 2853 2690 3025 2858 2550 2482 2649 2796 2765 2919 3222 3051 2891 3108 2937 2818 2849 2458 2361 2471 2433 2216 1878 1853 1838 1805 1943 2160 2389 2547 2810 2900 2813 2609 2562 2472 2330 2416 2393 2220 2313 2362 2330 2312 2354 2457 2537 2662 2832 2945 2914 2923 2840 2755 2577 2594 2601 2572 2525 2460 2425 2398 2368 2360 2266
1001 1558 1385 1376 1655 1755 2015 2238 2445 2578 2641 2711 2929 2950 2918 2801 2731 2882 2634 2719 2695 2518 2775 2813 3052 2739 2742 2679 2540 2911 3281 2807 3275 2893 2576 2551 2929 3030 2915 3163 3117 3016 2492 2450 2459 2425 2436 2438 2583 2851 2987 3051 3102 2978 2846 2821 2810 2806 2850 2848 2732 2695 2695 2734 2798 2890 2979 3129 3166 3139 3078 3082 3013 2908 2819 2696 2554 2580 2550 2375 2399 2426 2454 2499 2475
946 1047 1659 1537 1599 1752 1768 2043 2222 2416 2524 2543 2691 2798 2780 2758 2664 2826 2672 2949 2689 2536 2674 2811 2872 3001 2899 2959 2787 2813 3340 3110 3019 3098 2971 2682 2551 2643 2698 2694 2726 2904 3035 2745 2657 2698 2722 2726 2852 3005 3158 3168 2992 2887 2818 2898 2849 2817 2870 2899 2954 3126 3164 3147 3176 3259 3304 3267 3201 3162 3108 3050 3004 2859 2847 2672 2846 2890 2716 2474 2498 2447 2565 2573 2534
1269 842 1551 1624 1674 1773 1730 1911 2105 2170 2250 2360 2396 2530 2646 2622 2617 2661 2599 2710 2816 2619 2750 2932 3014 3014 2877 2830 3075 3008 2960 2965 3070 2936 2804 2868 2887 2883 2841 2865 2647 2627 2770 3261 3058 2878 2842 2885 2932 3034 3145 3182 3255 3323 3298 3258 3359 3459 3425 3339 3310 3346 3382 3351 3454 3442 3358 3206 3101 3074 3033 2893 2879 2971 3070 3194 3242 3021 2779 2771 2772 2704 2595 2650 2606
1471 1124 1116 1611 1827 1802 1801 1889 2044 2123 2115 2216 2268 2314 2512 2561 2590 2620 2581 2381 2587 2608 2536 2693 3327 3038 2914 2710 2693 2899 2934 2856 2928 3025 2973 2756 2711 2701 2688 2720 2862 2909 3010 3077 3284 3365 3258 3289 3273 3174 3220 3348 3468 3594 3753 3810 3814 3733 3671 3683 3693 3723 3741 3685 3619 3506 3316 3150 3098 2958 2932 3051 3114 3182 3298 3406 3340 3229 3167 3149 3039 2905 2842 2799 2737
1562 1384 982 1369 1877 1956 1912 1982 2039 2064 2138 2242 2240 2204 2292 2500 2531 2582 2597 2424 2282 2559 2539 2533 2822 2893 2873 2863 2774 2768 2803 2868 2860 2915 2970 2918 2840 2798 2707 2566 2482 2685 2638 2595 2653 2631 2806 2731 2627 2618 2866 3233 3419 3532 3572 3590 3594 3631 3787 3945 4020 4007 3952 3833 3617 3391 3235 3022 2927 3035 3159 3292 3452 3575 3584 3534 3406 3427 3337 3182 3094 3062 3016 2938 2834
1458 1561 1274 1216 1650 2052 2022 2065 2121 2015 2053 2271 2237 2154 2150 2328 2494 2551 2578 2586 2562 2339 2484 2596 2679 2842 2852 2794 2801 2838 2837 2716 2660 2692 2671 2609 2557 2665 2791 2746 2599 2751 3052 3298 3334 3246 3089 3020 3100 3277 3447 3579 3607 3618 3616 3610 3717 3655 3708 3760 3694 3594 3574 3529 3360 3289 3186 3188 3249 3372 3499 3670 3737 3651 3610 3639 3586 3376 3178 3119 3100 3110 3141 3049 2846
1452 1528 1519 1303 1424 1865 2033 2026 2152 2100 1966 2201 2216 2105 2021 2115 2325 2443 2474 2484 2539 2558 2415 2505 2641 2741 2813 2828 2779 2774 2746 2798 2785 2656 2551 2539 2669 2685 2742 2863 2973 2868 2594 2491 2738 3172 3372 3449 3445 3346 3335 3438 3509 3685 3877 3917 3638 3273 3107 3133 3050 3066 3242 3660 3722 3694 3699 3701 3751 3830 3820 3646 3732 3841 3804 3564 3267 3091 3051 3023 3014 3052 3025 2850 2712
1536 1489 1561 1444 1434 1744 1992 1959 2032 2131 1942 2051 2153 2038 1945 1934 2054 2249 2332 2362 2379 2402 2407 2419 2500 2562 2660 2744 2779 2735 2765 3264 3066 2907 2803 2736 2834 2926 2864 2801 2812 3042 3199 3274 3300 3283 3328 3429 3607 3765 3801 3736 3667 3582 3502 3353 3241 3152 3163 3172 3381 3649 4302 4315 4285 4227 4283 4260 4066 3774 3770 3947 3897 3642 3363 3157 3020 2987 2953 2913 2835 2814 2809 2933 2680
1564 1479 1522 1519 1546 1697 2030 2088 2025 2132 2021 1867 2144 2074 1915 1893 1916 2072 2251 2294 2330 2323 2279 2265 2365 2477 2509 2599 2667 3447 3205 3360 2918 2843 2869 2894 2992 2870 2912 3011 2912 2888 3023 3136 3258 3373 3462 3530 3575 3663 3811 3880 3808 3528 3338 3282 3204 3262 3494 3678 4295 4433 4256 4054 3613 3817 3885 3677 3838 4053 3855 3601 3339 3087 2974 2944 2909 2855 2831 2843 2849 2898 3005 2318 859
1634 1505 1482 1525 1660 1715 1892 2130 2097 2106 2194 1980 1880 2123 2051 1936 1945 1993 2113 2228 2262 2360 2362 2274 2256 2376 2491 2547 2601 3277 3910 3819 3246 2731 2678 2688 2680 2783 2815 3149 3351 3010 2991 3110 3285 3547 3700 3781 3816 3806 3757 3648 3574 3532 3435 3402 3486 3145 3970 4358 4181 4185 3983 3634 3456 3442 3362 3933 3707 3414 3093 2882 2803 2832 2858 2849 2818 2848 2861 2906 2926 2869 1257 590 642
1713 1566 1440 1450 1693 1818 1880 2042 2084 2050 2118 2206 2018 2005 2112 2054 1990 2078 2049 2122 2198 2273 2401 2441 2360 2284 2342 2454 2513 2500 2484 2620 2821 2736 2530 2493 2480 2423 2439 2589 3297 4213 3836 3591 3500 3529 3697 3768 3793 3845 3818 3743 3549 3381 3332 3130 3118 3597 3500 3413 3812 4016 3906 3726 3521 3330 3177 3259 3156 3015 2958 2892 2821 2808 2841 2890 2916 2976 2989 2937 2398 324 504 581 732
1730 1643 1429 1376 1646 1817 1932 2060 2128 2074 2014 2114 2266 2146 2116 2143 2139 2096 2050 2040 2127 2140 2175 2288 2376 2347 2236 2232 2338 2395 2339 2964 3143 2732 2499 2322 2269 2252 2222 2256 2344 2512 3264 3798 3864 3794 3794 3840 3767 3479 3108 2783 2314 1983 2102 2440 2990 2920 2917 2928 3417 3901 3875 3648 3412 3253 3170 2919 2965 2998 2966 2925 2932 2967 2966 3003 2997 2933 2696 1730 4 579 638 644 581
1785 1731 1566 1389 1630 1761 1878 2024 2230 2270 2198 2123 2235 2309 2258 2251 2263 2222 2059 1974 2022 2164 2138 2084 2145 2288 2279 2170 2168 2239 2299 2289 2123 2249 2643 2419 2204 2088 2103 2136 2166 2211 2288 2344 2363 2486 2559 2441 2224 1942 1698 1510 1395 1296 1340 2106 2654 2531 2550 2731 3230 3788 3774 3647 3208 3190 3022 3070 3086 3023 2977 2943 2932 2982 3018 2985 2623 1502 612 349 635 547 498 91 0
1838 1791 1740 1528 1560 1816 1913 1947 2156 2464 2542 2485 2343 2304 2302 2309 2374 2406 2171 1953 1806 1998 2284 2275 2200 2180 2302 2305 2187 2050 1952 1929 1911 1928 2294 2523 2239 2023 1893 1867 1980 2087 2161 2253 2338 2376 2382 2385 2353 2284 2147 1944 1747 1535 1701 2118 2305 2363 2524 2912 3710 3938 3654 3338 3244 3164 3120 3105 3005 3109 2983 2699 2527 2554 2276 1712 1222 237 151 614 475 426 0 0 0
1867 1804 1783 1694 1540 1697 1998 2064 2092 2344 2676 2782 2697 2532 2425 2394 2407 2437 2337 2116 1796 1651 1787 2220 2384 2322 2226 2184 2182 2101 1936 1756 1648 1835 2400 2494 2657 2512 2381 2225 2095 2102 2221 2366 2468 2544 2658 2684 2600 2410 2206 2067 2468 2652 2686 2698 2674 3851 4328 4100 3777 3461 3219 2941 3007 3067 3063 2930 2690 2544 2446 2162 2195 1619 1427 916 238 94 546 543 194 0 0 0 0
1896 1841 1808 1773 1672 1574 1786 2205 2246 2268 2539 2878 2927 2846 2780 2754 2724 2641 2548 2379 2050 1828 1747 1715 2008 2330 2352 2219 2113 2098 2086 2006 1904 1800 1778 2494 2848 3122 3261 3292 3180 3000 2882 2982 3098 3434 3586 3520 3431 3533 3572 3582 3534 3398 3238 3130 3074 3269 3486 3498 3299 3034 3067 3110 3128 2982 2771 2621 2491 1833 1700 1745 1500 1322 811 285 221 105 546 367 107 10 0 0 0
1803 1884 1843 1802 1745 1666 1587 1801 2356 2393 2430 2670 2990 3016 2924 2831 2808 2816 2740 2604 2366 2042 1993 2054 2078 2211 2400 3073 3167 2176 2166 2212 2270 2274 2171 1951 2224 2778 3285 3689 3980 4089 4117 4170 4219 4222 4287 4312 4225 4049 3863 3739 3713 3685 3641 3545 3463 3221 3038 3032 3129 3236 3262 3250 3161 2852 2675 2549 2069 1547 1430 1326 1193 868 575 621 444 436 530 252 22 1 29 0 0
1632 1852 1918 1850 1792 1746 1667 1600 1770 2311 2461 2478 2647 2872 2910 2802 2674 2661 2663 2616 2471 2268 2052 1964 2026 2188 2551 3350 4016 3166 2357 2320 2342 2402 2426 2294 2077 2015 2456 2866 3103 3267 3458 3679 3954 4064 3829 3336 2882 3092 3428 3501 3467 3465 3570 3586 3508 3429 3246 3338 3454 3404 3384 3377 3193 2788 2590 2103 1886 1764 1376 1246 856 646 574 760 592 477 272 3 0 0 3 0 0
Wind_Speed
7 6 5 4 4 6 7 8 8 8 9 11 11 12 12 13 13 15 17 17 18 20 19 21 21 21 21 24 22 17 16 16 17 18 18 19 18 18 18 18 18 19 19 20 20 21 22 22 23 23 23 23 22 21 21 20 19 19 19 19 18 18 17 15 14 13 12 12 12 12 12 12 12 13 13 14 14 15 16 17 18 20 22 23 23
7 6 5 5 5 7 7 7 8 8 8 10 10 9 12 13 13 16 16 17 17 20 20 20 21 23 22 24 20 19 17 17 18 18 19 19 19 19 19 19 19 19 19 20 21 21 22 22 23 23 23 22 21 21 20 20 20 21 21 21 21 19 18 17 16 15 14 14 14 14 14 14 13 13 14 14 15 15 16 18 20 22 23 23 23
7 7 5 6 8 9 9 8 8 9 7 7 8 9 11 12 11 12 15 16 18 18 18 19 21 23 24 24 21 19 18 18 18 18 19 19 18 19 19 19 20 20 21 22 22 22 22 22 23 23 22 22 21 22 22 22 22 23 23 23 22 22 21 20 18 17 16 16 16 16 16 15 14 13 14 15 16 17 18 20 22 23 23 23 24
7 7 6 7 9 10 9 9 9 8 5 5 7 9 9 9 10 9 16 17 17 18 19 20 22 23 23 22 20 19 19 19 19 19 19 18 18 18 19 20 22 22 23 23 23 23 22 22 22 21 21 22 22 23 23 24 25 25 25 24 24 23 23 21 20 19 18 18 18 17 16 15 14 15 15 16 17 18 20 21 22 23 24 24 25
7 6 6 7 9 9 8 9 9 8 7 6 7 10 9 9 12 9 17 17 15 17 18 19 20 21 21 17 18 20 20 19 18 18 19 18 18 18 19 20 21 23 23 23 23 23 22 22 22 21 22 22 23 24 25 26 27 27 26 25 24 23 23 23 22 22 21 21 19 18 17 16 15 16 17 18 20 20 21 22 23 24 25 26 27
6 5 6 6 8 8 8 9 10 9 8 7 8 9 9 10 12 11 13 13 13 15 17 18 17 18 17 17 19 20 19 19 17 17 17 17 18 19 19 19 20 20 20 24 23 23 23 23 23 23 22 23 24 25 26 27 28 28 27 27 26 26 24 23 23 23 23 21 20 19 18 18 17 18 19 21 21 21 22 23 25 26 27 28 28
6 5 7 7 7 8 9 9 9 9 7 8 7 9 9 8 9 10 12 14 14 15 16 19 15 13 16 16 18 18 18 18 16 16 17 17 17 18 18 19 19 19 20 20 23 24 24 25 24 23 24 24 25 26 27 28 29 29 29 28 27 26 26 26 26 25 23 22 22 21 20 19 19 20 20 22 22 22 24 26 27 28 28 29 29
6 6 7 8 7 7 9 9 8 8 9 8 8 8 9 9 9 10 12 13 13 14 15 nan 12 13 14 16 17 17 17 17 16 16 17 16 17 18 17 18 18 18 20 20 21 23 27 26 25 24 24 25 26 27 28 29 29 30 29 29 28 28 27 26 25 25 25 24 23 22 21 20 21 22 22 22 23 24 27 28 29 30 30 30 30
8 8 8 9 8 7 8 9 9 8 7 8 8 9 8 8 10 11 10 13 13 14 17 15 15 13 13 13 12 12 15 15 15 15 14 15 17 17 17 18 18 21 19 20 22 22 23 26 26 26 26 27 27 28 29 30 29 29 29 29 29 29 28 27 27 27 26 26 24 22 22 23 22 23 23 23 24 26 29 30 nan 32 32 33 32
8 9 9 10 8 8 8 10 10 8 8 9 10 9 8 7 10 12 12 12 13 14 17 15 13 12 13 13 12 12 13 11 14 14 14 15 16 17 18 17 19 20 20 21 22 20 20 23 26 26 27 28 28 29 30 30 29 29 29 30 30 29 28 28 28 28 27 25 24 24 24 24 23 23 25 25 27 30 31 nan 33 33 34 35 35
9 9 8 8 7 7 8 10 10 9 9 10 9 10 9 8 10 13 13 13 13 14 16 13 12 11 12 12 12 11 12 12 11 11 13 15 17 17 16 18 19 19 20 20 20 19 19 19 19 19 23 28 29 30 30 30 29 28 29 30 30 30 29 29 29 28 27 26 25 24 24 23 23 24 25 26 29 31 32 34 34 35 nan 36 37
8 7 7 7 7 7 8 9 9 9 10 11 10 10 10 10 12 13 13 14 14 14 11 8 7 11 11 11 11 11 13 13 12 12 13 14 16 15 17 18 18 18 19 19 18 18 18 19 19 20 20 23 29 29 30 30 29 29 29 31 31 31 31 30 30 29 27 26 25 24 23 23 24 26 27 29 31 33 34 nan nan 35 35 36 37
8 7 7 7 6 7 8 10 10 10 10 11 9 9 11 12 13 13 13 13 13 12 10 8 9 12 11 9 11 13 15 14 13 14 14 15 14 15 16 17 18 17 18 16 16 18 17 18 19 20 20 20 22 28 30 30 29 30 32 32 33 33 32 31 30 28 25 24 23 23 24 25 26 27 29 31 33 34 34 34 34 34 34 35 36
8 8 7 6 6 7 10 10 10 11 11 10 9 11 12 13 13 13 13 12 13 10 9 8 12 11 9 11 12 14 15 15 15 15 15 15 16 13 14 17 16 16 15 15 16 17 17 18 18 19 20 20 20 21 23 25 28 32 33 34 35 34 31 30 28 26 25 25 25 25 27 28 29 32 33 34 35 35 34 34 nan 34 35 35 36
7 7 7 7 7 9 11 10 10 12 10 9 10 11 13 13 13 11 13 13 12 12 9 9 11 11 9 8 12 12 13 12 14 15 15 16 14 13 13 15 15 15 15 15 16 17 17 17 18 19 19 19 19 20 21 24 27 33 34 34 33 32 30 29 27 27 26 26 26 27 29 31 33 34 35 35 35 35 35 35 35 36 36 37 37
7 6 7 7 8 10 11 11 12 12 10 8 10 12 13 13 13 12 10 12 11 10 10 11 9 6 8 8 11 8 10 14 15 16 16 17 14 15 13 13 13 14 15 16 18 18 18 17 18 19 19 19 19 20 21 23 30 35 36 34 31 29 29 29 29 29 29 29 30 31 32 34 35 35 35 35 36 36 36 36 37 37 37 38 38
8 6 7 7 9 10 11 12 12 12 10 9 9 12 13 12 12 9 9 10 12 11 13 11 8 7 6 5 6 8 11 14 10 15 11 14 15 nan 12 14 15 16 16 17 17 16 17 17 18 18 19 20 20 20 21 24 25 26 29 32 31 29 30 31 31 31 31 31 32 32 33 34 34 34 35 35 35 36 37 37 37 37 37 37 37
8 7 6 6 8 10 10 10 10 11 10 11 10 10 11 10 11 9 9 10 11 10 11 9 6 5 5 5 8 9 9 12 8 12 14 12 12 nan 13 16 17 18 16 17 16 16 15 16 16 18 19 20 20 20 22 24 25 25 24 25 31 29 30 31 32 33 33 33 33 34 34 33 33 35 35 35 34 36 37 38 38 37 36 36 36
6 7 5 5 6 8 8 9 8 10 10 9 10 10 10 11 10 8 9 8 8 9 10 7 6 5 4 7 9 10 9 8 12 10 12 12 9 nan nan nan 17 18 16 17 18 17 17 17 17 17 18 18 19 20 22 24 26 25 27 27 29 30 31 32 33 34 35 34 34 34 34 33 32 33 34 34 35 35 38 40 40 38 36 36 36
4 6 4 3 3 5 6 7 8 9 9 10 11 9 9 10 10 10 8 6 7 7 9 7 nan 6 4 6 9 9 11 9 9 9 10 9 10 13 nan nan 16 17 16 17 19 18 18 18 17 18 18 19 20 22 22 22 22 23 23 28 29 31 31 32 34 35 35 35 35 34 34 33 32 32 33 34 35 36 38 40 41 39 38 37 37
3 4 4 3 3 3 4 5 7 7 7 9 9 7 10 10 9 9 10 8 7 8 7 6 5 6 5 6 7 8 9 8 8 7 7 7 11 13 13 nan 14 15 17 17 19 17 17 18 19 19 19 20 21 22 22 21 22 21 22 28 30 32 32 33 34 35 35 35 35 34 34 34 33 33 33 33 34 36 37 40 42 41 39 38 38
3 3 3 2 2 2 3 4 5 6 6 7 7 7 10 9 9 10 9 8 8 8 7 9 7 5 6 5 6 7 6 7 7 7 6 7 10 12 12 nan 15 nan 15 19 18 18 17 20 20 19 20 20 20 22 21 22 20 20 22 28 30 32 33 33 34 34 35 34 34 34 34 35 35 34 33 33 34 35 36 38 40 41 40 40 40
3 2 1 1 1 1 1 3 3 4 6 5 7 8 9 9 9 9 8 8 8 8 7 8 5 4 4 4 6 6 7 6 9 7 7 8 9 12 14 13 nan nan 15 nan 17 18 20 21 21 20 20 20 20 21 22 21 20 22 26 28 30 32 32 33 33 33 33 32 32 33 33 35 37 37 36 35 36 37 37 38 39 40 41 42 42
3 1 1 1 1 1 1 2 3 3 6 5 8 8 8 7 8 8 8 8 8 7 7 8 6 5 5 6 8 8 8 8 9 9 9 10 9 12 12 13 11 13 13 16 15 18 23 22 21 19 20 20 21 22 22 21 20 26 25 29 31 31 31 31 31 31 31 31 31 32 34 35 37 39 39 39 39 39 39 39 40 41 42 43 43
2 1 1 2 1 2 3 3 4 4 4 5 4 8 8 8 8 8 7 7 8 7 7 7 6 7 7 8 9 9 10 nan 8 8 11 8 8 nan 12 11 11 13 15 14 17 17 20 22 21 nan 19 20 20 20 20 20 19 23 28 26 32 31 32 31 30 30 31 32 33 34 35 35 37 38 38 37 38 38 39 40 41 42 43 43 43
1 0 1 2 2 3 3 3 5 5 5 6 5 4 6 8 7 8 7 7 6 6 7 7 7 8 7 7 7 nan 10 11 nan 9 9 6 8 9 10 11 8 13 15 15 16 15 19 19 20 nan 18 18 19 18 18 19 19 24 28 25 27 33 35 33 31 31 32 33 34 34 35 36 37 38 38 38 38 39 39 40 41 42 43 43 44
2 2 1 1 2 3 3 3 4 6 5 6 7 5 4 5 7 8 8 8 8 8 8 8 10 11 10 9 10 8 9 11 nan nan 7 7 7 8 7 9 11 12 14 15 15 17 19 18 15 17 16 17 17 16 18 18 22 26 27 25 24 31 34 33 31 30 31 32 33 34 36 37 38 38 39 38 38 38 39 40 41 42 43 43 43
5 4 2 2 2 4 4 4 3 5 6 6 5 4 4 4 4 6 7 8 8 9 10 11 11 12 13 12 10 9 9 5 4 2 4 6 6 5 5 6 8 nan 14 14 14 16 15 14 13 14 14 13 14 14 16 18 19 24 27 25 25 26 32 33 31 30 30 31 32 33 35 37 38 38 39 38 39 39 41 42 43 43 44 45 45
7 6 4 3 4 4 5 5 4 4 6 7 6 5 4 4 7 9 10 10 10 10 10 10 11 11 12 12 11 11 9 5 4 3 2 3 4 5 6 7 8 8 11 13 14 13 15 11 11 12 11 12 12 12 14 17 21 23 22 24 26 25 27 31 31 30 31 31 32 34 35 36 37 38 38 39 40 40 42 44 44 45 46 46 46
7 7 6 5 5 6 6 6 4 4 6 7 6 5 4 7 9 11 11 10 8 9 8 9 10 9 9 11 11 10 10 7 7 4 1 3 2 3 4 5 5 7 9 11 14 13 14 12 10 10 10 11 12 13 14 17 20 23 22 24 24 23 25 27 28 29 31 32 33 34 34 34 35 36 37 38 40 42 44 45 46 46 47 47 47
8 8 7 7 7 7 8 7 5 5 5 6 5 3 4 7 9 10 10 9 7 7 8 7 8 7 8 9 9 10 9 9 9 8 4 4 3 3 5 5 5 5 7 7 9 13 10 10 10 8 8 11 12 13 14 16 20 23 22 21 18 19 22 21 25 27 28 30 32 32 33 33 35 37 38 39 41 43 44 45 45 46 46 47 47
9 8 8 8 9 9 9 9 7 5 5 4 3 3 4 6 7 7 8 7 7 7 7 7 7 7 7 8 7 8 9 8 8 8 5 6 5 3 4 4 5 5 5 6 8 15 10 9 10 12 11 10 11 12 16 18 20 21 16 14 13 15 16 17 21 25 27 29 32 33 34 35 37 38 39 41 42 43 44 44 44 45 45 46 48
11 10 10 9 11 11 11 10 9 7 5 3 1 2 4 4 5 6 6 7 7 7 6 7 7 7 8 7 7 7 7 6 7 6 6 5 6 5 5 4 5 5 4 6 8 12 12 8 9 10 10 8 10 12 16 17 14 11 9 9 12 13 16 17 17 21 26 29 32 33 34 35 37 38 39 40 41 42 42 42 43 43 45 46 47
10 11 11 11 12 13 13 11 9 8 6 3 1 2 2 2 4 5 6 7 8 8 6 7 7 7 7 7 7 7 6 6 5 6 6 7 5 5 5 3 4 6 5 4 8 7 12 8 8 8 9 7 11 9 12 12 9 7 8 10 11 13 15 16 17 18 23 26 28 30 31 32 34 35 36 37 38 39 40 41 41 43 44 45 45
10 11 13 13 14 14 14 12 11 9 7 4 2 2 0 2 4 5 5 6 8 8 8 8 8 7 6 6 7 6 5 5 5 5 4 5 6 5 6 5 4 5 4 4 4 6 8 10 6 7 5 4 7 12 10 9 8 9 10 10 10 10 12 15 15 15 19 24 26 27 28 29 30 31 31 33 36 38 38 39 40 40 41 41 42
9 10 13 13 14 14 14 13 11 10 8 5 3 2 2 3 4 5 5 5 6 8 9 8 9 8 7 5 5 5 5 5 5 5 5 4 5 5 5 4 4 5 4 3 4 5 4 6 5 5 4 5 8 9 8 7 7 9 9 10 9 11 12 14 15 16 17 21 24 25 25 25 26 28 31 33 33 33 33 34 36 36 37 38 39
10 10 11 13 14 14 13 13 12 10 9 7 5 3 2 2 3 4 5 5 6 8 9 9 9 9 8 7 6 4 4 4 4 4 4 5 4 5 6 5 2 3 3 3 3 2 3 5 6 4 4 4 5 7 6 6 6 6 7 9 11 12 13 15 16 18 20 23 24 26 25 24 24 26 29 30 29 29 30 30 31 32 34 35 36
10 10 11 12 14 14 13 13 12 11 10 8 6 4 3 2 3 4 4 5 6 7 8 8 9 8 8 8 7 6 5 4 3 3 3 4 3 2 3 5 5 4 3 3 2 1 1 3 3 7 5 5 6 6 4 5 6 6 7 9 8 11 13 14 17 17 17 16 16 17 17 17 18 19 19 17 21 25 27 28 29 29 30 31 32
10 10 11 12 14 14 14 13 12 12 11 9 8 6 5 3 4 5 5 5 4 5 6 8 9 9 9 8 7 7 6 4 3 3 3 3 3 1 0 2 3 3 3 3 2 2 2 3 4 3 5 5 5 9 5 4 6 7 8 7 7 10 11 12 11 12 12 11 13 15 14 14 15 16 17 17 17 20 23 26 27 27 28 29 29
10 11 11 12 14 14 14 13 12 12 12 11 9 8 7 6 5 5 6 6 6 5 5 7 8 9 9 9 8 7 7 6 5 3 4 4 3 2 1 2 2 3 3 2 2 1 2 3 3 5 4 5 6 7 7 4 3 4 5 7 8 6 4 6 9 9 7 9 10 12 13 13 13 14 14 14 14 15 17 19 21 24 26 27 28
11 11 13 13 14 15 14 13 12 11 11 11 11 10 9 9 8 6 6 7 7 7 6 7 7 8 8 8 8 7 7 7 7 5 5 5 6 3 2 3 3 3 3 3 2 1 1 3 5 6 6 6 6 8 8 5 2 4 4 4 4 5 4 4 5 8 9 8 9 10 13 14 13 15 16 17 18 17 18 19 21 21 21 20 21
13 13 14 14 14 15 16 14 12 11 10 10 11 14 12 11 11 9 7 6 7 7 8 7 7 8 8 8 8 11 10 10 9 7 5 6 7 5 4 5 4 4 4 4 3 3 3 2 2 3 4 5 5 5 5 5 3 3 2 5 6 5 7 8 10 12 12 10 10 10 12 16 13 14 17 18 19 19 21 21 20 19 16 13 16
15 15 15 15 15 15 16 16 14 11 11 10 14 15 14 13 12 12 10 8 7 7 8 8 8 8 7 8 7 8 9 9 9 10 7 6 6 6 7 7 7 6 6 6 5 6 6 4 4 5 3 2 3 4 4 4 7 7 8 9 7 9 8 8 8 11 16 20 17 15 11 15 17 16 18 19 20 20 20 21 17 13 14 17 19
17 17 16 16 16 16 16 16 15 13 11 13 17 16 16 14 12 12 13 11 8 7 8 9 9 8 7 7 7 6 5 6 7 7 7 6 6 7 7 5 7 8 8 9 7 7 7 5 5 5 7 5 5 9 7 9 8 11 10 11 10 11 10 10 10 11 15 21 18 17 14 17 20 19 20 20 21 22 20 17 15 15 17 18 19
19 17 17 18 17 18 17 16 16 15 14 15 17 17 15 14 13 12 12 12 10 8 8 9 10 9 8 7 7 6 6 9 8 9 8 4 3 5 5 6 5 6 5 5 8 9 11 8 7 6 8 7 7 7 11 11 13 11 11 11 11 12 13 13 13 15 13 19 18 18 18 18 21 20 20 20 22 22 21 20 nan 19 19 18 17
17 17 17 18 19 18 19 18 17 17 16 17 19 19 16 15 13 12 11 11 11 10 9 9 10 10 10 9 8 7 7 6 7 9 10 8 7 7 5 5 5 4 3 4 3 4 8 8 9 5 5 11 6 8 10 15 14 11 11 10 12 13 13 13 15 16 17 19 19 20 19 18 20 20 20 21 24 23 21 18 21 19 18 nan nan
13 15 16 16 18 19 19 20 19 18 17 19 20 20 18 17 14 13 10 10 11 12 12 11 11 11 12 11 10 8 8 7 7 9 9 9 9 10 10 8 7 7 7 7 9 10 10 9 8 6 5 8 8 8 9 13 14 14 13 10 13 16 15 16 18 18 17 20 22 25 22 18 21 21 21 22 24 22 22 22 22 21 nan nan nan
11 13 14 15 16 18 19 20 20 18 18 22 22 21 21 19 18 14 11 10 10 11 13 14 13 12 12 12 11 10 8 7 6 9 10 11 10 10 11 11 10 10 9 8 8 9 10 11 10 8 8 8 9 10 14 16 16 18 18 18 18 17 17 17 17 20 21 20 23 24 22 20 22 24 22 23 24 nan 24 25 24 nan nan nan nan
11 11 12 13 14 15 17 19 19 19 19 22 23 22 21 21 22 17 14 13 12 11 13 15 15 15 14 13 12 11 9 8 8 9 8 11 11 10 11 11 12 11 10 11 10 9 7 6 7 8 7 6 7 11 15 17 21 23 22 19 15 18 18 19 19 20 20 22 23 23 23 21 22 25 23 25 26 26 27 27 27 nan nan nan nan
11 11 13 14 14 14 14 16 18 19 19 22 23 23 22 23 24 20 17 15 13 12 13 17 18 17 16 13 14 12 11 9 10 11 9 9 9 10 11 12 13 11 11 13 14 14 9 6 6 7 10 13 16 18 21 24 25 25 23 16 16 22 21 22 19 21 22 23 24 22 24 22 23 25 25 28 31 30 32 31 nan nan nan nan nan
12 14 15 15 14 14 13 13 15 17 18 21 22 23 23 24 24 20 19 17 14 14 14 15 18 20 20 16 12 11 12 11 12 12 10 10 8 9 10 12 11 11 12 17 16 18 21 21 18 19 18 16 21 24 22 22 21 21 21 17 18 24 22 22 21 22 24 25 25 25 26 22 25 24 27 26 28 28 32 nan nan nan nan nan nan
Wind_Direction
74 82 87 102 99 86 83 86 91 81 81 86 83 84 88 90 89 87 89 90 91 95 95 93 92 88 87 88 84 81 82 80 81 81 83 85 85 73 57 55 56 58 59 60 60 59 58 57 55 53 52 50 48 46 43 40 35 33 29 26 24 23 21 21 19 19 26 30 34 39 38 34 29 25 24 23 21 17 13 11 12 11 8 5 3
68 77 86 88 92 90 84 87 90 87 79 83 89 82 79 85 82 86 89 90 90 89 89 91 92 89 83 84 78 75 78 78 79 81 82 84 85 82 61 62 60 61 62 60 59 57 56 53 52 51 49 47 46 45 41 37 34 32 30 27 28 26 25 25 26 25 30 34 38 44 41 39 34 30 28 24 21 18 18 18 16 12 8 6 4
54 61 68 74 78 78 87 90 94 92 91 93 99 90 82 80 82 85 91 88 83 82 82 83 79 82 90 87 78 79 75 76 77 79 78 80 82 85 79 63 64 61 61 59 58 55 52 50 47 47 44 43 42 41 40 38 36 35 33 33 33 32 32 32 31 34 35 39 43 46 45 44 42 35 28 24 24 24 24 23 16 13 10 8 4
52 60 55 61 70 80 88 93 98 96 99 107 108 107 103 92 87 93 82 80 79 71 71 65 64 70 78 82 79 74 71 72 73 74 77 78 78 80 81 76 62 60 59 57 56 54 51 48 46 45 43 42 42 42 40 39 39 37 35 35 35 35 36 36 39 41 44 46 50 52 52 50 46 37 31 28 31 28 27 22 17 15 12 9 6
53 45 52 61 71 78 86 92 96 101 103 97 100 105 109 104 96 69 71 77 81 76 73 60 56 60 65 80 79 76 74 70 70 72 72 73 73 75 74 75 74 60 57 57 54 53 51 48 47 47 47 46 45 44 42 40 39 38 36 36 38 41 40 43 46 48 51 53 55 57 54 51 43 39 36 36 34 29 26 22 18 15 14 13 12
63 58 60 70 78 81 81 87 93 94 95 98 101 106 105 97 94 97 92 92 91 89 92 88 78 59 62 64 70 72 72 71 69 68 69 69 69 68 68 71 71 70 68 56 54 52 52 52 50 50 50 51 47 46 43 40 39 38 37 39 41 45 48 50 53 54 55 57 56 57 54 49 45 43 41 39 33 27 23 20 19 17 16 17 17
87 73 80 82 85 89 91 86 95 108 107 106 108 107 104 99 100 106 101 100 88 82 81 75 70 59 60 65 67 72 70 70 66 62 64 64 64 64 64 65 64 64 64 65 59 56 54 52 50 50 50 49 49 46 43 40 40 39 40 43 46 48 50 52 54 56 57 56 56 55 54 52 49 46 42 37 27 26 22 20 19 19 19 21 21
90 77 76 83 78 83 84 89 97 106 106 107 102 98 105 109 107 100 102 101 102 96 89 nan 78 70 67 67 70 68 68 68 64 57 57 59 60 61 60 62 61 62 62 63 65 61 55 54 53 51 49 49 49 45 43 43 40 42 43 46 48 50 52 54 55 56 56 57 56 56 55 53 49 45 39 33 26 25 24 21 20 21 22 23 23
95 91 80 73 71 77 86 92 94 94 102 109 109 99 111 113 115 107 97 96 104 102 99 79 79 76 89 85 83 68 61 58 63 61 57 56 59 58 57 58 60 56 61 61 63 64 60 57 54 52 50 48 47 46 45 43 44 46 47 49 51 51 52 53 54 56 57 57 57 57 54 50 45 42 36 31 30 26 23 21 nan 25 24 24 23
96 98 93 86 87 79 78 82 88 90 95 90 92 103 102 100 109 109 103 99 101 101 94 87 86 93 87 84 71 81 77 68 49 55 57 57 60 57 55 55 55 57 57 58 58 59 60 58 55 53 51 48 47 47 46 45 46 48 50 51 52 52 54 54 56 58 58 58 58 55 51 46 42 37 33 32 29 27 24 nan 26 26 25 25 23
83 88 87 95 99 90 82 84 87 89 91 89 83 85 88 97 106 110 104 96 94 91 86 90 94 84 88 85 88 80 67 70 71 55 52 54 55 57 57 57 54 56 56 56 57 54 53 56 56 54 52 48 47 46 47 49 49 50 51 51 51 53 54 55 56 56 56 57 54 52 49 46 40 35 35 33 31 28 29 28 28 27 nan 24 23
84 89 84 82 87 82 79 81 85 82 83 84 78 78 86 96 100 105 111 111 101 98 93 106 107 98 87 90 79 72 71 75 72 74 66 58 57 57 59 61 60 57 55 56 55 51 48 47 48 48 48 49 47 47 49 51 51 50 51 52 53 53 54 55 55 54 53 52 49 46 44 41 36 35 36 34 31 31 32 nan nan 29 27 25 24
92 90 85 88 92 88 80 80 82 81 80 87 85 84 87 90 94 106 117 125 119 112 119 102 113 115 112 89 81 75 74 73 69 65 67 66 58 54 58 59 61 58 55 55 51 49 45 41 43 43 45 47 47 49 51 53 52 51 51 53 54 54 54 53 53 52 50 49 48 43 38 37 38 38 36 36 35 34 34 33 31 29 28 26 25
85 90 90 83 87 87 84 80 84 89 92 95 92 84 85 93 101 113 120 123 116 111 94 115 114 102 97 98 88 83 77 75 73 69 71 73 69 64 55 53 56 54 56 51 47 45 42 40 41 43 44 44 46 50 52 53 52 50 52 53 53 53 53 53 54 54 49 46 44 39 38 37 38 38 37 34 34 34 33 33 nan 30 28 26 24
82 87 87 89 83 80 80 81 85 87 93 96 92 89 94 93 99 109 114 115 111 110 91 112 106 106 101 98 87 71 81 86 85 82 70 73 75 70 56 54 47 44 44 44 44 43 44 41 41 42 43 45 48 51 51 50 50 52 51 52 53 53 53 52 52 50 47 43 42 42 39 38 38 37 35 33 32 32 32 31 30 29 28 26 24
89 83 89 83 79 77 76 78 83 81 80 83 86 90 93 96 99 101 116 118 107 109 96 97 108 105 96 81 72 60 72 79 70 84 68 68 65 66 60 56 47 39 36 35 40 40 41 40 40 42 46 48 50 51 50 52 52 51 51 50 50 51 53 51 47 47 46 43 41 37 37 37 36 35 36 34 31 30 30 30 29 28 26 25 24
101 85 81 69 74 77 69 69 74 77 83 81 80 80 84 87 92 100 106 110 115 109 102 98 99 70 73 82 89 79 66 72 77 96 81 69 67 nan 40 40 42 40 38 43 48 41 39 39 40 44 50 53 53 51 51 53 54 53 51 48 46 45 47 48 47 45 43 42 40 38 34 33 35 34 33 32 31 30 28 27 27 26 25 26 26
110 95 89 74 74 73 73 69 68 74 73 73 78 79 79 84 91 92 98 101 104 104 100 103 83 71 55 61 46 58 67 85 91 93 97 78 65 nan 30 31 39 39 38 43 49 48 46 43 42 44 51 53 50 48 50 50 50 49 45 44 43 40 41 42 44 44 41 39 38 37 36 33 32 33 30 32 31 29 28 25 25 26 26 28 29
105 107 107 72 74 82 79 80 73 71 70 72 69 68 73 87 84 85 86 93 100 105 91 91 115 108 89 82 79 75 70 79 78 91 90 92 76 nan nan nan 40 42 38 45 49 50 58 54 51 53 57 54 53 51 48 47 45 41 38 37 40 39 38 39 40 41 41 38 37 37 36 35 32 30 30 31 32 30 29 27 27 29 30 31 31
124 129 129 108 89 87 92 91 85 76 69 66 67 75 77 80 81 72 80 72 79 101 99 100 nan 86 94 91 89 91 84 88 75 55 64 78 78 79 nan nan 47 53 48 51 55 53 58 62 58 57 56 55 53 53 52 46 44 40 40 36 37 37 36 36 37 38 39 39 38 37 36 36 34 29 28 31 32 31 30 31 32 34 34 34 33
138 132 140 138 119 96 89 87 86 82 71 64 74 68 67 66 72 72 75 80 83 84 92 95 80 78 78 92 105 108 101 90 85 75 69 79 86 72 71 nan 63 67 63 60 63 61 60 61 61 55 54 54 53 53 51 46 43 41 41 38 36 37 35 35 35 36 38 40 40 38 36 33 31 30 29 31 31 32 32 32 34 35 34 34 33
150 123 149 134 121 100 91 78 72 65 70 63 66 61 63 62 61 64 70 76 82 80 82 81 78 81 62 45 93 97 102 101 94 93 93 65 65 78 73 nan 51 nan 63 64 66 66 63 62 62 60 56 55 56 56 54 52 47 42 41 36 35 35 34 34 35 36 38 39 38 37 35 32 30 31 32 32 32 33 32 32 32 33 32 32 31
177 127 134 133 116 77 68 65 77 64 57 51 49 48 51 46 44 53 58 59 68 72 86 89 90 90 74 53 62 58 68 73 72 72 67 59 73 86 87 67 nan nan 73 nan 60 66 64 62 60 61 56 57 58 58 58 56 49 42 37 35 35 34 34 35 36 36 37 36 36 34 33 33 33 36 37 36 35 35 34 32 32 32 32 32 31
179 209 106 45 358 18 25 39 51 56 49 37 27 34 38 41 32 35 44 50 55 60 67 78 84 69 70 62 52 48 58 51 58 48 35 48 58 69 76 87 89 76 85 90 85 59 64 66 67 62 58 57 58 58 59 56 50 41 36 36 37 36 36 36 35 35 35 34 32 32 33 33 36 39 39 38 38 37 36 35 34 34 34 33 33
162 211 61 11 352 352 10 11 26 34 38 39 27 15 22 28 22 25 30 35 41 48 53 62 58 56 49 59 60 58 61 nan 45 57 56 32 44 nan 77 77 81 90 87 81 81 83 67 70 68 nan 60 58 59 59 58 57 53 45 37 40 38 38 35 34 32 33 33 33 33 32 33 34 36 37 37 37 37 37 37 37 36 36 36 36 35
193 115 357 355 357 355 10 6 10 12 8 19 32 24 360 15 17 24 34 38 44 45 53 62 66 60 45 48 63 nan 86 75 nan 49 52 52 72 70 76 89 87 92 92 90 86 84 89 75 67 nan 60 57 58 57 59 56 55 50 43 42 39 36 34 33 33 34 34 34 34 35 35 36 36 36 38 37 37 37 36 35 36 37 38 37 36
211 201 257 311 337 326 356 8 356 1 351 3 21 14 2 351 26 34 42 45 49 52 57 61 70 71 64 45 57 65 64 81 nan nan 56 46 47 64 57 81 97 107 102 96 95 87 83 96 81 72 58 58 58 57 55 54 50 47 46 43 38 36 35 36 38 38 37 35 35 36 37 39 39 40 40 39 38 37 38 37 37 37 37 37 37
206 222 236 275 289 318 330 355 340 349 341 347 356 0 14 22 61 72 64 73 68 70 69 70 70 70 69 67 62 65 72 77 99 96 65 52 45 42 47 63 77 nan 104 101 99 95 90 92 94 82 74 60 57 52 52 47 48 48 44 40 36 33 33 35 39 40 40 38 38 39 39 40 41 41 40 39 39 38 39 39 39 38 38 37 37
213 216 230 242 265 298 309 327 340 337 337 337 350 2 31 75 86 100 95 90 81 77 77 72 75 69 68 65 58 61 72 91 116 102 66 83 49 45 49 58 58 74 93 100 97 94 101 100 93 95 88 83 63 59 44 46 48 48 43 37 34 31 30 31 35 39 40 41 41 42 42 42 42 42 42 42 41 39 40 40 39 37 37 36 36
218 218 230 247 254 287 292 308 327 334 335 339 352 15 64 95 105 104 103 103 91 79 70 64 68 71 66 65 63 61 71 91 102 111 74 87 101 86 82 72 58 74 77 87 96 90 94 99 91 100 106 106 99 79 55 51 51 47 41 36 31 28 31 31 35 40 42 42 44 45 44 44 44 44 43 42 42 42 41 40 39 38 37 36 35
228 226 233 242 258 270 285 297 317 335 331 340 359 42 93 103 109 103 103 98 92 78 68 54 63 58 61 57 56 58 62 66 86 107 118 122 120 117 108 109 88 76 71 85 98 101 83 95 98 95 99 91 78 71 67 59 56 50 43 37 29 31 38 40 42 44 45 46 47 47 47 46 45 43 42 41 40 40 39 39 38 37 36 35 34
240 247 246 251 263 275 281 296 316 326 330 342 6 85 119 108 103 97 87 82 80 73 68 55 55 54 56 61 47 45 54 58 70 83 114 124 129 117 120 112 96 86 73 76 77 91 98 95 97 101 95 85 79 68 65 62 58 55 41 34 37 48 50 49 49 47 47 48 48 46 45 43 42 41 40 39 38 38 37 36 36 35 35 34 33
248 257 260 266 271 279 286 295 312 320 326 332 33 130 136 118 97 87 77 64 61 62 53 49 46 42 47 47 54 50 39 39 56 83 110 125 130 121 114 111 94 97 80 84 86 99 112 97 94 95 93 84 87 61 64 67 70 63 47 44 52 53 51 49 46 47 46 43 43 43 41 40 38 38 37 37 36 36 35 34 33 33 33 33 32
262 266 273 275 276 284 287 298 304 312 317 311 257 188 142 101 72 77 67 52 47 47 38 40 34 35 28 30 42 48 42 39 49 70 87 114 138 132 119 106 93 90 87 87 88 90 100 120 115 105 99 85 91 69 68 80 80 78 86 75 57 47 47 45 44 44 49 48 46 44 42 39 37 36 35 35 35 34 33 31 30 31 31 32 30
270 271 275 283 287 289 293 298 300 301 302 296 240 233 280 24 35 53 56 39 33 31 28 24 24 26 27 19 26 21 20 30 43 50 65 93 119 130 117 120 101 91 89 78 88 90 90 101 86 98 92 103 76 93 88 74 66 69 82 79 68 57 46 43 41 41 44 45 47 47 43 39 36 34 32 32 33 32 30 28 27 28 29 29 28
272 273 275 285 289 294 298 300 301 295 295 286 258 240 304 357 17 30 39 32 22 22 19 14 10 10 21 18 17 5 356 10 33 41 52 74 107 132 146 134 112 102 99 86 79 75 89 101 121 94 119 103 104 100 91 77 80 84 72 70 58 54 53 49 42 42 43 47 49 50 49 43 36 30 28 28 29 28 27 25 24 24 25 27 26
275 277 274 278 286 293 297 299 299 294 292 293 285 266 256 316 355 4 15 22 17 14 13 11 3 359 4 10 10 346 331 353 15 23 32 41 69 112 134 156 133 105 106 78 78 78 97 102 129 137 121 111 104 113 96 85 92 80 69 61 56 48 45 44 40 37 34 38 38 40 39 32 27 23 22 22 20 21 22 22 22 22 23 23 23
279 286 287 280 284 295 298 300 300 296 287 288 290 286 283 289 318 333 349 4 11 3 3 2 1 354 356 359 355 344 328 330 357 355 353 14 20 65 126 145 149 162 150 137 143 135 119 108 122 139 155 123 146 135 104 65 82 83 59 51 45 37 31 36 36 34 24 13 9 14 17 15 17 28 27 15 14 13 15 17 18 21 23 23 21
280 284 289 289 284 293 300 301 302 301 294 289 286 285 278 275 299 312 328 349 355 354 355 357 356 351 349 349 345 333 329 326 322 320 321 325 335 359 34 145 157 167 163 168 181 177 175 158 166 155 146 148 143 146 139 67 63 56 53 46 27 27 21 15 30 33 26 18 17 23 17 19 17 7 7 10 9 10 10 12 15 19 22 22 18
282 281 287 289 285 290 299 303 305 302 301 295 289 287 281 277 278 294 310 330 348 345 350 355 353 351 347 341 340 332 326 310 300 293 293 304 293 316 330 247 215 200 165 159 186 202 198 204 183 166 178 160 177 175 186 192 134 101 45 24 35 31 30 356 356 14 12 2 1 355 349 353 349 347 352 353 2 7 13 11 15 19 21 18 13
267 273 278 284 285 290 294 300 304 303 305 299 286 283 280 277 273 284 304 320 336 343 341 345 348 348 342 340 338 335 326 333 338 309 298 301 286 302 292 270 242 237 220 228 264 278 208 213 184 205 192 176 174 177 177 181 127 73 45 355 349 331 320 282 292 321 346 347 340 340 331 331 338 338 340 344 347 354 360 6 7 15 13 7 6
267 267 272 279 284 289 292 296 300 302 302 293 297 312 299 277 274 272 280 303 318 327 336 335 336 342 346 342 341 1 1 354 347 347 342 337 333 310 298 286 282 259 245 244 264 283 285 258 222 220 194 173 177 195 191 216 235 236 222 289 310 310 278 271 277 297 299 294 307 313 324 323 329 335 334 337 342 344 348 351 356 4 359 348 352
267 267 269 280 282 283 289 291 298 298 298 296 316 310 312 311 282 270 273 281 297 312 321 326 329 332 337 341 337 354 0 359 342 354 357 356 352 357 355 331 309 290 258 258 259 274 283 290 279 274 276 215 206 237 223 211 240 250 262 271 271 281 281 267 271 287 289 286 290 296 308 314 319 329 330 333 337 340 344 347 1 351 342 338 323
264 263 267 276 280 279 279 287 292 293 289 301 312 315 317 317 301 274 265 267 277 295 306 316 317 317 324 329 332 331 322 320 320 324 346 359 358 12 19 353 325 317 298 280 270 263 271 281 286 296 284 292 265 270 256 249 244 247 252 253 263 269 272 278 291 291 302 291 289 292 300 304 312 323 326 330 332 333 339 348 344 326 314 303 306
265 266 265 267 276 278 279 283 287 288 284 296 304 313 317 319 317 294 262 262 267 281 297 304 305 308 307 310 314 318 333 10 334 310 306 295 324 10 21 20 357 330 314 294 282 276 274 278 286 282 295 278 266 273 276 266 264 254 258 259 271 277 283 293 298 296 295 292 292 299 300 297 302 317 323 326 322 324 330 330 nan 300 309 312 303
272 270 268 265 267 276 279 279 277 279 284 291 302 308 313 316 314 299 264 262 259 270 290 298 293 296 303 308 312 307 304 317 321 314 302 296 274 264 260 256 267 293 317 314 293 261 260 269 272 281 278 281 287 273 277 275 268 264 260 269 276 283 286 294 296 295 295 295 305 304 302 298 300 307 315 315 309 313 317 314 298 304 291 nan nan
280 277 273 268 262 267 274 275 272 273 275 293 298 303 306 309 311 297 269 256 247 253 270 284 290 291 290 301 309 315 309 301 294 300 301 297 281 266 263 267 278 285 285 277 272 269 265 261 265 271 272 276 283 280 277 278 283 281 281 284 289 291 292 286 279 287 293 300 304 302 306 297 294 294 302 303 302 307 317 309 305 284 nan nan nan
263 268 267 267 266 264 267 273 274 275 273 291 296 300 304 305 306 276 266 256 242 241 254 269 281 283 287 292 294 301 307 309 333 339 312 292 285 271 261 256 258 265 273 286 298 287 275 271 271 275 277 287 285 288 275 272 275 278 278 277 278 279 281 282 281 284 286 289 298 304 304 296 288 288 295 299 298 nan 307 310 298 nan nan nan nan
259 269 272 270 263 263 262 266 274 272 269 282 294 296 299 304 289 274 270 259 246 238 242 260 273 279 281 286 291 297 302 302 327 345 344 311 283 281 265 259 259 261 263 267 289 307 303 299 302 304 303 300 290 256 259 274 279 279 278 278 286 295 290 280 280 284 289 285 291 299 306 297 288 287 292 300 301 304 303 300 301 nan nan nan nan
258 265 266 264 263 264 267 265 268 268 268 273 291 292 297 297 292 285 276 268 257 244 239 246 258 266 272 299 300 298 302 302 323 332 344 316 289 281 269 260 259 259 254 261 264 271 298 301 273 263 256 249 251 268 280 282 283 281 285 293 298 292 293 293 292 294 290 285 292 298 299 298 292 291 295 304 300 301 295 295 nan nan nan nan nan
250 255 261 263 264 262 266 268 274 272 267 269 287 293 297 296 292 280 280 274 266 251 243 244 252 257 256 263 289 303 299 307 320 323 331 311 289 285 278 264 255 249 250 257 261 256 254 254 254 256 256 268 271 271 275 285 293 295 296 305 298 296 300 300 298 291 287 290 292 293 290 298 287 296 295 300 302 303 293 nan nan nan nan nan nan